Location: Unspecified
(48.5670°N, 0.0000°E)
Time: 08:42:51
(UTC+00:00)

Vanguard 2 Rocket - Pass Details

Date: 01 September 2019
Orbit: 554 x 3326 km, 32.9° (Epoch: 24 September)

Event Time Altitude Azimuth Distance (km) Brightness Sun altitude
Rises 02:53:00 0° 250° (WSW) 4,368 - -21.6°
Reaches altitude 10° 02:55:43 10° 241° (WSW) 3,708 - -21.2°
Exits shadow 03:00:11 28° 218° (SW) 2,995 8.9 -20.7°
Maximum altitude 03:04:53 38° 178° (S) 2,986 9.2 -20.1°
Drops below altitude 10° 03:19:20 10° 119° (ESE) 5,811 11.3 -18.2°
Sets 03:24:56 0° 113° (ESE) 7,098 11.9 -17.5°
